Location: ?????????
(38.0736°N, 23.2119°E)
Time: 03:22:38
(UTC+00:00)

USA 281 - Pass Details

Date: 18 April 2024
Orbit: 1074 x 1085 km, 106.0° (Epoch: 22 May)

Event Time Altitude Azimuth Distance (km) Brightness Sun altitude
Exits shadow 18:10:31 16° 118° (ESE) 2,463 4.4 -12.7°
Maximum altitude 18:15:07 39° 58° (ENE) 1,568 3.8 -13.5°
Drops below altitude 10° 18:21:07 10° 353° (N) 2,931 6.0 -14.5°
Sets 18:23:47 0° 346° (NNW) 3,891 6.8 -15.0°
